Location: St. Louis
(38.6270°N, 90.1994°W)
Time: 22:44:52
(UTC-06:00)

Vanguard 1 - Pass Details

Date: 07 December 2021
Orbit: 652 x 3830 km, 34.2° (Epoch: 21 January)

Event Time Altitude Azimuth Distance (km) Brightness Sun altitude
Rises 07:07:03 0° 283° (WNW) 7,493 13.9 -0.6°
Reaches altitude 10° 07:15:30 10° 266° (W) 5,884 13.5 0.9°
Maximum altitude 07:23:53 16° 236° (WSW) 4,631 13.3 2.3°
Drops below altitude 10° 07:30:26 10° 204° (SSW) 4,380 13.5 3.4°
Sets 07:35:11 0° 183° (S) 4,796 14.1 4.1°
